Home   Weather   Bozeman   Past weeks

Flag for USA Past Weather in Bozeman, Montana, USA — Yesterday and Last 2 Weeks

Now
50 °F

Cloudy.


Feels Like: 45 °F
Forecast: 31 / 50 °F
Wind: 15 mph from Northeast

Location: Gallatin Field

Current Time: Apr 25, 2017 at 6:42:41 pm

Latest Report: Apr 25, 2017 at 5:56 pm


Visibility: 10 mi

Pressure: 29.79 "Hg (24.95 "Hg at 1469m altitude)

Humidity: 61%

Dew Point: 37 °F

Location of BozemanLocation

Past Weather in Bozeman — Graph

°F

Bozeman Temperature Yesterday

Maximum temperature yesterday: 53 °F (at 2:56 pm)
Minimum temperature yesterday: 38 °F (at 4:56 am)
Average temperature yesterday: 45 °F

High & Low Weather Summary for the Past Weeks

 TemperatureHumidityPressure
High73 °F (Apr 13, 12:56 pm)100% (Apr 10, 9:07 pm)30.37 "Hg (Apr 10, 9:07 pm)
Low21 °F (Apr 15, 6:56 am)17% (Apr 13, 12:56 pm)29.47 "Hg (Apr 13, 3:56 pm)
Average43 °F72%29.96 "Hg
* Reported Apr 10 4:56 pm — Apr 25 4:56 pm, Bozeman, Weather by CustomWeather, © 2017

Note: Actual official high and low records may vary slightly from our data, if they occured in-between our weather recording intervals... More about our weather records

Advertising

Bozeman Weather History for the Previous 24 Hours

Scroll right to see more
 ConditionsComfort  
Time TempWeatherWind HumidityBarometerVisibility
4:56 pm
Tue, Apr 25
51 °FPassing clouds.3 mph56%29.77 "Hg10 mi
3:56 pm51 °FScattered clouds.No wind59%29.78 "Hg10 mi
2:56 pm50 °FPartly sunny.7 mph66%29.79 "Hg10 mi
1:56 pm48 °FPartly sunny.8 mph63%29.80 "Hg10 mi
12:56 pm45 °FLight rain. Mostly cloudy.5 mph71%29.81 "Hg10 mi
12:15 pm45 °FBroken clouds.6 mph82%29.80 "Hg10 mi
11:56 am44 °FLight rain. Mostly cloudy.7 mph79%29.81 "Hg10 mi
11:35 am44 °FCloudy.7 mph82%29.81 "Hg10 mi
11:16 am44 °FMostly cloudy.6 mph85%29.81 "Hg10 mi
10:56 am43 °FMostly cloudy.5 mph89%29.82 "Hg10 mi
9:56 am40 °FLight rain. Mostly cloudy.No wind89%29.81 "Hg10 mi
8:56 am39 °FLight rain. Overcast.5 mph89%29.79 "Hg10 mi
7:56 am38 °FLight rain. Overcast.No wind93%29.77 "Hg10 mi
6:56 am37 °FLight rain. Overcast.6 mph96%29.74 "Hg10 mi
5:56 am38 °FLight rain. Mostly cloudy.10 mph93%29.70 "Hg10 mi
5:34 am38 °FMostly cloudy.9 mph93%29.70 "Hg10 mi
4:56 am39 °FMostly cloudy.12 mph93%29.67 "Hg10 mi
3:56 am41 °FLight rain. Mostly cloudy.5 mph93%29.65 "Hg10 mi
2:56 am42 °FOvercast.5 mph85%29.63 "Hg10 mi
1:56 am40 °FPassing clouds.No wind89%29.64 "Hg10 mi
12:56 am42 °FMostly cloudy.No wind82%29.62 "Hg10 mi
11:56 pm
Mon, Apr 24
42 °FMostly cloudy.3 mph85%29.61 "Hg10 mi
10:56 pm43 °FMostly cloudy.12 mph74%29.61 "Hg10 mi
9:56 pm46 °FMostly cloudy.10 mph68%29.59 "Hg10 mi
8:56 pm46 °FPassing clouds.8 mph66%29.58 "Hg10 mi
7:56 pm48 °FMostly cloudy.8 mph61%29.56 "Hg10 mi
6:56 pm50 °FPassing clouds.9 mph68%29.54 "Hg10 mi
Weather by CustomWeather, © 2017

See weather overviewHow to use our weather pages